Regional Weather Roundup
Issued by NWS

Home | Current Version | Previous Version | Graphics & Text | Print | Product List | Glossary On
Versions: 1 2 3 4 5 6 7 8 9 10 11 12 13 14 15 16 17 18 19 20 21 22 23 24 25 26 27 28 29 30 31 32 33 34 35 36 37 38 39 40 41 42 43 44 45 46 47 48 49 50
000
ASUS44 KMEG 280310
RWRTN
TENNESSEE HOURLY STATE WEATHER ROUNDUP
NATIONAL WEATHER SERVICE MEMPHIS TN
1000 PM CDT WED AUG 27 2014

TNZ002-004-019-021-049-052-054-088>092-280400-
WEST TENNESSEE

CITY           SKY/WX    TMP DP  RH WIND       PRES   REMARKS
MEMPHIS INTL   CLEAR     83  66  56 E6        30.04R
NWS MEMPHIS      N/A     78 N/A N/A MISG        N/A
JACKSON        CLEAR     75  72  90 CALM      30.05S
DYERSBURG      CLEAR     77  66  69 CALM      30.06S
UNION CITY     CLEAR     77  75  94 CALM      30.04S
PARIS          CLEAR     72  72 100 CALM      30.07R
HUNTINGDON     CLEAR     73  71  93 CALM      30.06R
LEXINGTON      CLEAR     75  72  88 CALM      30.05R
SAVANNAH       CLEAR     72  72 100 CALM      30.06R
$$

TNZ008-025-027-028-033-062-065-066-280400-
NORTH MIDDLE TENNESSEE

CITY           SKY/WX    TMP DP  RH WIND       PRES   REMARKS
NASHVILLE      PTCLDY    81  71  71 NE3       30.06R
DICKSON        CLEAR     75  73  94 CALM      30.07R
PORTLAND       MOCLDY    75  72  88 CALM      30.06S
CLARKSVILLE    CLEAR     78  71  79 CALM      30.06R
LEBANON        CLEAR     75  71  87 CALM      30.05R
SMYRNA         CLEAR     74  72  93 CALM      30.07R
MURFREESBORO   CLEAR     78  69  73 CALM      30.05S
COOKEVILLE     CLEAR     70  68  94 CALM      30.08S
GALLATIN       CLEAR     79  74  84 CALM      30.07R
CROSSVILLE     CLEAR     69  65  86 CALM      30.13S
$$

TNZ061-075-076-078-094-096-097-280400-
SOUTH MIDDLE TENNESSEE

CITY           SKY/WX    TMP DP  RH WIND       PRES   REMARKS
LEWISBURG      CLEAR     71  67  87 CALM      30.06R
FAYETTEVILLE   CLEAR     73  66  78 CALM      30.07S
TULLAHOMA      CLEAR     72  64  78 CALM      30.09S
WINCHESTER     CLEAR     70  68  94 CALM      30.08S
MCMINNVILLE    CLEAR     72  72 100 CALM      30.08S
COLUMBIA       CLEAR     75  75 100 CALM      30.05S
SHELBYVILLE    CLEAR     72  70  94 SE3       30.08R
$$

TNZ017-018-042-046-047-280400-
NORTHEAST TENNESSEE

CITY           SKY/WX    TMP DP  RH WIND       PRES   REMARKS
TRI CITIES     CLEAR     67  59  75 CALM      30.10R
ELIZABETHTON   CLEAR     63  59  88 CALM      30.11R
$$

TNZ012-013-036-069-073-074-280400-
CENTRAL EAST TENNESSEE

CITY           SKY/WX    TMP DP  RH WIND       PRES   REMARKS
KNOXVILLE      CLEAR     73  64  73 CALM      30.06R
OAK RIDGE      CLEAR     71  66  84 CALM      30.09R
GATLINBURG     CLEAR     70  63  78 CALM      30.07S
MORRISTOWN     CLEAR     72  66  83 CALM      30.10R
$$

TNZ083-085-099-280400-
SOUTHEAST TENNESSEE

CITY           SKY/WX    TMP DP  RH WIND       PRES   REMARKS
CHATTANOOGA    CLEAR     76  65  68 CALM      30.06S
$$

SKY/WX REPORTED AS FAIR MEANS FEW OR NO CLOUDS BELOW
12 THOUSAND FEET.




USA.gov is the U.S. government's official web portal to all federal, state and local government web resources and services.